Rome, NY

6:01 PM EDT on September 21, 2017 (GMT -0400)
Griffiss

Weather History for KRME - September, 2013

Change the Weather History Date:

Monday, September 16, 2013

  Actual Average Record
Temperature  
Mean Temperature 49 °F -  
Max Temperature 57 °F 68 °F 91 °F (1991)
Min Temperature 39 °F 48 °F 33 °F (1984)
Degree Days  
Heating Degree Days 16    
Moisture  
Dew Point 49 °F    
Average Humidity 85    
Maximum Humidity 97    
Minimum Humidity 57    
Precipitation  
Precipitation 0.19 in - - ()
Sea Level Pressure  
Sea Level Pressure 30.16 in    
Wind  
Wind Speed 6 mph (NW)    
Max Wind Speed 13 mph    
Max Gust Speed -    
Visibility 9 miles    
Events Rain    
Averages and records for this station are not official NWS values.
T = Trace of Precipitation, MM = Missing Value Source: NWS Daily Summary

Daily Weather History Graph

Daily Weather History Graph

Search for Another Location

Airport or City:

Trip Planner

Search our weather history database for the weather conditions in past years. The results will help you decide how hot, cold, wet, or windy it might be!

Date:

Astronomy

Sep. 16, 2013 Rise Set
Actual Time 6:42 AM EDT 7:09 PM EDT
Civil Twilight 6:13 AM EDT 7:37 PM EDT
Nautical Twilight 5:40 AM EDT 8:11 PM EDT
Astronomical Twilight 5:05 AM EDT 8:46 PM EDT
Moon 5:20 PM EDT (9/16) 3:21 AM EDT (9/16)
Length of Visible Light 13h 24m
Length of Day
12h 26m
Waxing Gibbous, 90% of the Moon is Illuminated
Sep 16
Waxing Gibbous
Sep 19
Full
Sep 26
Last Quarter
Oct 4
New
Oct 11
First Quarter

Hourly Weather History & Observations

Time (EDT) Temp. Windchill Dew Point Humidity Pressure Visibility Wind Dir Wind Speed Gust Speed Precip Events Conditions
12:53 AM 55.9 °F - 53.1 °F 90% 30.09 in 6.0 mi NNW 6.9 mph - 0.01 in Rain Light Rain
1:02 AM 55.9 °F - 53.1 °F 90% 30.09 in 3.0 mi NW 5.8 mph - 0.03 in Rain Rain
1:53 AM 55.9 °F - 54.0 °F 93% 30.10 in 8.0 mi West 9.2 mph - 0.09 in Rain Light Rain
2:05 AM 55.9 °F - 53.1 °F 90% 30.10 in 10.0 mi West 9.2 mph - 0.01 in Rain Light Rain
2:53 AM 54.0 °F - 52.0 °F 93% 30.09 in 10.0 mi WNW 3.5 mph - 0.03 in Rain Light Rain
3:53 AM 54.0 °F - 53.1 °F 97% 30.07 in 10.0 mi SSW 3.5 mph - 0.00 in Rain Light Rain
4:53 AM 54.0 °F - 53.1 °F 97% 30.08 in 10.0 mi Calm Calm - 0.01 in   Overcast
5:08 AM 55.0 °F - 52.0 °F 89% 30.08 in 10.0 mi Calm Calm - N/A   Overcast
5:21 AM 55.0 °F - 53.1 °F 93% 30.08 in 10.0 mi Calm Calm - N/A   Overcast
5:37 AM 55.0 °F - 53.1 °F 93% 30.08 in 10.0 mi Calm Calm - N/A   Overcast
5:53 AM 55.0 °F - 53.1 °F 93% 30.08 in 10.0 mi Calm Calm - N/A   Overcast
6:28 AM 55.0 °F - 53.1 °F 93% 30.10 in 10.0 mi Calm Calm - N/A   Overcast
6:49 AM 55.4 °F - 53.6 °F 94% 30.10 in 10.0 mi West 3.5 mph - 0.02 in Rain Light Rain
6:53 AM 55.0 °F - 53.1 °F 93% 30.10 in 10.0 mi WNW 3.5 mph - 0.02 in Rain Light Rain
7:06 AM 55.0 °F - 53.1 °F 93% 30.11 in 10.0 mi Variable 3.5 mph - 0.01 in Rain Light Rain
7:33 AM 55.0 °F - 52.0 °F 89% 30.11 in 10.0 mi West 3.5 mph - 0.01 in   Overcast
7:53 AM 55.0 °F - 52.0 °F 89% 30.11 in 10.0 mi West 3.5 mph - 0.01 in   Overcast
8:03 AM 55.0 °F - 52.0 °F 89% 30.11 in 10.0 mi WNW 4.6 mph - N/A   Overcast
8:22 AM 55.0 °F - 53.1 °F 93% 30.12 in 2.0 mi West 3.5 mph - 0.01 in Rain Light Rain
8:38 AM 54.0 °F - 52.0 °F 93% 30.12 in 5.0 mi WNW 9.2 mph - 0.02 in Rain Light Rain
8:43 AM 54.0 °F - 52.0 °F 93% 30.12 in 9.0 mi WNW 9.2 mph - 0.02 in Rain Light Rain
8:53 AM 54.0 °F - 52.0 °F 93% 30.12 in 10.0 mi NW 10.4 mph - 0.02 in Rain Light Rain
9:53 AM 54.0 °F - 52.0 °F 93% 30.14 in 7.0 mi WNW 8.1 mph - 0.00 in Rain Light Rain
10:29 AM 54.0 °F - 52.0 °F 93% 30.15 in 10.0 mi North 6.9 mph - 0.00 in   Overcast
10:53 AM 53.1 °F - 48.9 °F 86% 30.15 in 10.0 mi North 8.1 mph - 0.00 in   Overcast
11:30 AM 54.0 °F - 50.0 °F 86% 30.16 in 10.0 mi North 9.2 mph - N/A   Overcast
11:53 AM 55.0 °F - 50.0 °F 83% 30.16 in 10.0 mi North 9.2 mph - N/A   Overcast
12:53 PM 54.0 °F - 48.9 °F 83% 30.17 in 10.0 mi NNW 6.9 mph - 0.00 in Rain Light Rain
1:35 PM 54.0 °F - 46.9 °F 77% 30.18 in 10.0 mi North 8.1 mph - 0.00 in   Overcast
1:53 PM 55.0 °F - 48.0 °F 77% 30.18 in 10.0 mi NNW 9.2 mph - 0.00 in   Overcast
2:36 PM 55.9 °F - 46.9 °F 72% 30.19 in 10.0 mi North 11.5 mph - N/A   Overcast
2:53 PM 55.9 °F - 46.9 °F 72% 30.19 in 10.0 mi North 11.5 mph - N/A   Overcast
3:53 PM 55.9 °F - 44.1 °F 64% 30.19 in 10.0 mi North 9.2 mph - N/A   Mostly Cloudy
4:04 PM 57.0 °F - 43.0 °F 59% 30.20 in 10.0 mi North 9.2 mph - N/A   Mostly Cloudy
4:53 PM 57.0 °F - 42.1 °F 57% 30.21 in 10.0 mi NNW 11.5 mph - N/A   Clear
5:53 PM 54.0 °F - 39.9 °F 59% 30.24 in 10.0 mi NNW 12.7 mph - N/A   Clear
6:53 PM 50.0 °F - 37.9 °F 63% 30.27 in 10.0 mi NNW 11.5 mph - N/A   Clear
7:53 PM 46.9 °F - 37.9 °F 71% 30.30 in 10.0 mi West 5.8 mph - N/A   Clear
8:53 PM 45.0 °F 42.6 °F 37.9 °F 76% 30.33 in 10.0 mi NW 4.6 mph - N/A   Clear
9:53 PM 43.0 °F - 37.9 °F 82% 30.35 in 10.0 mi Calm Calm - N/A   Clear
10:53 PM 41.0 °F - 37.0 °F 86% 30.38 in 10.0 mi Calm Calm - N/A   Clear
11:53 PM 39.9 °F - 37.0 °F 89% 30.38 in 10.0 mi Calm Calm - N/A   Clear